This is the latest recevied weather packets stored in our database for station/object K1PM-WX. If no packets are shown the sender has not sent any weather packets the latest 1 day(s).
| Time | Temp. | Humidity | Pressure | Rain* | Wind** | Luminosity | Snow |
|---|---|---|---|---|---|---|---|
| 1778033037 | 9.44° C | 99% | 1032 hPa | 0.51 mm | 0.45 m/s, 113° | - | - |
| 1778032737 | 9.44° C | 99% | 1032 hPa | 0.51 mm | 0.45 m/s, 90° | - | - |
| 1778032437 | 9.44° C | 99% | 1032 hPa | 0.76 mm | 0 m/s | - | - |
| 1778031836 | 9.44° C | 99% | 1032 hPa | 1.02 mm | 0.45 m/s, 113° | - | - |
| 1778031536 | 9.44° C | 99% | 1032 hPa | 1.02 mm | 0.89 m/s, 113° | - | - |
| 1778031236 | 9.44° C | 99% | 1032 hPa | 1.52 mm | 0.89 m/s, 180° | - | - |
| 1778030936 | 9.44° C | 99% | 1032 hPa | 1.52 mm | 0.89 m/s, 135° | - | - |
| 1778030636 | 9.44° C | 99% | 1032 hPa | 2.03 mm | 0.45 m/s, 203° | - | - |
| 1778030336 | 9.44° C | 99% | 1032 hPa | 1.78 mm | 0 m/s | - | - |
| 1778030037 | 9.44° C | 99% | 1032 hPa | 2.29 mm | 0 m/s | - | - |
| 1778029736 | 9.44° C | 99% | 1032 hPa | 2.29 mm | 0 m/s | - | - |
| 1778029436 | 9.44° C | 99% | 1032 hPa | 2.79 mm | 0 m/s | - | - |
| 1778029138 | 9.44° C | 99% | 1032 hPa | 2.79 mm | 0 m/s | - | - |
| 1778028836 | 9.44° C | 99% | 1032 hPa | 3.05 mm | 0.45 m/s, 248° | - | - |
| 1778028536 | 9.44° C | 99% | 1032 hPa | 3.05 mm | 0.45 m/s, 270° | - | - |
| 1778028236 | 9.44° C | 99% | 1032 hPa | 3.56 mm | 0.89 m/s, 270° | - | - |
| 1778027937 | 9.44° C | 99% | 1032 hPa | 3.3 mm | 0.89 m/s, 248° | - | - |
| 1778027636 | 9.44° C | 99% | 1032 hPa | 3.3 mm | 0.45 m/s, 225° | - | - |
| 1778027336 | 9.44° C | 99% | 1032 hPa | 3.05 mm | 0.45 m/s, 248° | - | - |
| 1778027038 | 9.44° C | 99% | 1032 hPa | 3.3 mm | 1.34 m/s, 248° | - | - |
| 1778026737 | 9.44° C | 99% | 1032 hPa | 2.79 mm | 0.89 m/s, 248° | - | - |
| 1778026436 | 9.44° C | 99% | 1032 hPa | 3.05 mm | 1.34 m/s, 225° | - | - |
| 1778026136 | 9.44° C | 99% | 1031 hPa | 2.79 mm | 1.34 m/s, 270° | - | - |
| 1778025837 | 9.44° C | 99% | 1031 hPa | 2.79 mm | 1.34 m/s, 270° | - | - |
| 1778025536 | 10° C | 99% | 1031 hPa | 2.54 mm | 0.89 m/s, 225° | - | - |
* Rain latest hour (hover to see other rain measurements)
** Current wind speed in m/s (hover to see current wind gust speed)